Flag for Germany Past Weather in Mörfelden-Walldorf, Hesse, Germany — Yesterday and Last 2 Weeks

Now
75 °F

Scattered showers. Partly sunny.


Feels Like: 76 °F
Forecast: 65 / 80 °F
Wind: 3 mph from Southwest

Location: Frankfurt-M-Flughafen Airport

Current Time: Jul 24, 2016 at 8:44:00 PM

Latest Report: Jul 24, 2016 at 8:20 PM


Visibility: N/A

Pressure: 30.04 "Hg

Humidity: 78%

Dew Point: 68 °F

Location of Mörfelden-WalldorfLocation

Past Weather in Mörfelden-Walldorf — Graph

°F

Mörfelden-Walldorf Temperature Yesterday

Maximum temperature yesterday: 81 °F (at 5:20 PM)
Minimum temperature yesterday: 66 °F (at 12:20 AM)
Average temperature yesterday: 70 °F

High & Low Weather Summary for the Past Weeks

 TemperatureHumidityPressure
High95 °F (Jul 20, 2:50 PM)100% (Jul 22, 4:50 AM)30.30 "Hg (Jul 22, 4:50 AM)
Low50 °F (Jul 16, 2:50 AM)22% (Jul 20, 6:20 PM)29.80 "Hg (Jul 10, 8:50 PM)
Average70 °F66%30.05 "Hg
* Reported Jul 9 7:20 PM — Jul 24 7:20 PM, Mörfelden-Walldorf, Weather by CustomWeather, © 2016

Note: Actual official high and low records may vary slightly from our data, if they occured in-between our weather recording intervals... More about our weather records

Advertising

Mörfelden-Walldorf Weather History for the Previous 24 Hours

Scroll right to see more
 ConditionsComfort  
Time TempWeatherWind HumidityBarometerVisibility
7:20 PM
Sun, Jul 24
77 °FPartly sunny.5 mph74%30.04 "HgN/A
6:50 PM77 °FPartly sunny.5 mph69%30.04 "HgN/A
6:20 PM79 °FPartly sunny.5 mph61%30.04 "HgN/A
5:50 PM79 °FPartly sunny.5 mph61%30.04 "HgN/A
5:20 PM79 °FPartly sunny.2 mph58%30.07 "HgN/A
4:50 PM77 °FPartly sunny.5 mph61%30.07 "HgN/A
4:20 PM77 °FScattered showers. Partly sunny.8 mph65%30.07 "HgN/A
3:50 PM75 °FScattered showers. Partly sunny.10 mph69%30.07 "HgN/A
3:20 PM77 °FScattered showers. Scattered clouds.6 mph65%30.07 "HgN/A
2:50 PM77 °FScattered showers. Scattered clouds.2 mph65%30.07 "HgN/A
2:20 PM77 °FScattered showers. Scattered clouds.2 mph65%30.07 "HgN/A
1:50 PM77 °FScattered showers. Scattered clouds.1 mph57%30.09 "HgN/A
1:20 PM75 °FScattered clouds.3 mph69%30.09 "HgN/A
12:50 PM75 °FBroken clouds.3 mph74%30.09 "HgN/A
12:20 PM77 °FBroken clouds.2 mph65%30.09 "HgN/A
11:50 AM75 °FBroken clouds.3 mph74%30.09 "HgN/A
11:20 AM73 °FBroken clouds.2 mph74%30.09 "HgN/A
10:50 AM72 °FBroken clouds.3 mph78%30.09 "HgN/A
10:20 AM72 °FBroken clouds.3 mph83%30.09 "HgN/A
9:50 AM70 °FBroken clouds.3 mph88%30.09 "HgN/A
9:20 AM70 °FBroken clouds.3 mph88%30.09 "HgN/A
8:50 AM70 °FBroken clouds.1 mph88%30.09 "HgN/A
8:20 AM68 °FPartly sunny.3 mph94%30.07 "HgN/A
7:50 AM68 °FBroken clouds.2 mph94%30.07 "HgN/A
7:20 AM68 °FBroken clouds.1 mph94%30.07 "HgN/A
6:50 AM68 °FFog.1 mph88%30.07 "HgN/A
6:20 AM66 °FFog.2 mph94%30.07 "HgN/A
5:50 AM66 °FFog.2 mph94%30.07 "HgN/A
5:20 AM66 °FPartly cloudy.6 mph94%30.07 "HgN/A
4:50 AM66 °FPartly cloudy.3 mph94%30.07 "HgN/A
4:20 AM68 °FPartly cloudy.5 mph88%30.07 "HgN/A
3:50 AM68 °FPassing clouds.6 mph94%30.07 "HgN/A
3:20 AM68 °FPassing clouds.2 mph94%30.07 "HgN/A
2:50 AM68 °FPartly cloudy.2 mph94%30.07 "HgN/A
2:20 AM68 °FPartly cloudy.1 mph94%30.07 "HgN/A
1:50 AM68 °FPartly cloudy.5 mph94%30.07 "HgN/A
1:20 AM68 °FPartly cloudy.5 mph94%30.07 "HgN/A
12:50 AM68 °FPartly cloudy.3 mph94%30.07 "Hg6 mi
12:20 AM68 °FPassing clouds.2 mph94%30.07 "Hg6 mi
11:50 PM
Sat, Jul 23
68 °FPassing clouds.3 mph94%30.07 "HgN/A
11:20 PM68 °FPassing clouds.3 mph94%30.07 "HgN/A
10:50 PM68 °FSprinkles. Partly cloudy.8 mph94%30.07 "HgN/A
10:20 PM70 °FSprinkles. Partly cloudy.7 mph88%30.07 "HgN/A
9:50 PM70 °FSprinkles. Broken clouds.6 mph88%30.07 "HgN/A
9:20 PM70 °FScattered showers. Partly sunny.9 mph83%30.04 "HgN/A
8:50 PM72 °FScattered showers. Partly sunny.9 mph83%30.04 "HgN/A
8:20 PM72 °FSprinkles. Broken clouds.6 mph88%30.04 "HgN/A
Weather by CustomWeather, © 2016

See weather overviewHow to use our weather pages